Juneau, AK

9:18 PM AKDT on June 23, 2017 (GMT -0800)
Juneau International

Weather History for PAJN - January, 2014

Change the Weather History Date:

Wednesday, January 8, 2014

  Actual Average Record
Temperature  
Mean Temperature 36 °F 28 °F  
Max Temperature 38 °F 33 °F 50 °F (1943)
Min Temperature 34 °F 24 °F -12 °F (1950)
Degree Days  
Heating Degree Days 29 37  
Month to date heating degree days 229 296  
Since 1 July heating degree days 3854 4017  
Moisture  
Dew Point 34 °F    
Average Humidity 96    
Maximum Humidity 100    
Minimum Humidity 92    
Precipitation  
Precipitation 0.17 in 0.17 in 0.62 in (2009)
Month to date precipitation 2.94 1.40  
Year to date precipitation 2.94 1.40  
Snow  
Snow 0.00 in 0.80 in 12.40 in (2009)
Month to date snowfall 1.0 6.0  
Since 1 July snowfall 60.3 35.5  
Snow Depth 0.00 in    
Sea Level Pressure  
Sea Level Pressure 29.40 in    
Wind  
Wind Speed 1 mph (ENE)    
Max Wind Speed 12 mph    
Max Gust Speed 15 mph    
Visibility 3 miles    
Events Fog , Rain    
T = Trace of Precipitation, MM = Missing Value Source: NWS Daily Summary

Daily Weather History Graph

Daily Weather History Graph

Search for Another Location

Airport or City:

Trip Planner

Search our weather history database for the weather conditions in past years. The results will help you decide how hot, cold, wet, or windy it might be!

Date:

Astronomy

Jan. 08, 2014 Rise Set
Actual Time 8:41 AM AKST 3:29 PM AKST
Civil Twilight 7:51 AM AKST 4:19 PM AKST
Nautical Twilight 6:59 AM AKST 5:11 PM AKST
Astronomical Twilight 6:10 AM AKST 5:59 PM AKST
Moon 11:10 AM AKST (1/8) 1:05 AM AKST (1/8)
Length of Visible Light 8h 28m
Length of Day
6h 47m
First Quarter, 57% of the Moon is Illuminated
Jan 8
First Quarter
Jan 15
Full
Jan 23
Last Quarter
Jan 30
New
Feb 6
First Quarter

Hourly Weather History & Observations

Time (AKST) Temp. Windchill Dew Point Humidity Pressure Visibility Wind Dir Wind Speed Gust Speed Precip Events Conditions
12:53 AM 37.0 °F 33.3 °F 35.1 °F 93% 29.61 in 10.0 mi ESE 4.6 mph - N/A   Overcast
1:53 AM 36.0 °F - 35.1 °F 97% 29.60 in 10.0 mi Calm Calm - N/A Fog Patches of Fog
2:05 AM 35.1 °F - 35.1 °F 100% 29.59 in 7.0 mi Calm Calm - N/A Fog Patches of Fog
3:18 AM 35.1 °F - 34.0 °F 96% 29.57 in 1.8 mi Calm Calm - N/A   Overcast
3:27 AM 35.1 °F - 35.1 °F 100% 29.57 in 2.0 mi Calm Calm - N/A   Overcast
3:48 AM 35.6 °F - 33.8 °F 93% 29.56 in 0.8 mi Calm Calm - 0.00 in   Overcast
3:53 AM 35.1 °F - 34.0 °F 96% 29.55 in 0.8 mi Calm Calm - 0.00 in   Overcast
4:53 AM 34.0 °F - 33.1 °F 96% 29.52 in 0.5 mi Calm Calm - N/A Fog Fog
5:26 AM 34.0 °F - 33.1 °F 96% 29.51 in 0.2 mi Calm Calm - N/A Fog Fog
5:33 AM 34.0 °F - 34.0 °F 100% 29.51 in 0.2 mi Calm Calm - N/A Fog Fog
5:45 AM 35.1 °F - 35.1 °F 100% 29.50 in 0.2 mi Calm Calm - N/A Fog Fog
5:53 AM 35.1 °F - 34.0 °F 96% 29.50 in 0.2 mi Calm Calm - N/A Fog Fog
6:29 AM 35.1 °F - 34.0 °F 96% 29.48 in 0.2 mi Calm Calm - N/A Fog Fog
6:47 AM 35.6 °F 32.8 °F 33.8 °F 93% 29.47 in 0.2 mi ENE 3.5 mph - N/A Fog Fog
6:53 AM 35.1 °F - 34.0 °F 96% 29.47 in 0.2 mi Calm Calm - N/A Fog Fog
7:27 AM 35.1 °F - 35.1 °F 100% 29.46 in 0.2 mi Calm Calm - N/A Fog Fog
7:53 AM 35.1 °F - 35.1 °F 100% 29.46 in 0.2 mi Calm Calm - N/A Fog Fog
8:53 AM 35.1 °F - 35.1 °F 100% 29.43 in 0.2 mi Calm Calm - N/A Fog Fog
9:53 AM 35.1 °F - 35.1 °F 100% 29.42 in 0.2 mi Calm Calm - N/A Fog Fog
10:53 AM 34.0 °F 31.0 °F 34.0 °F 100% 29.40 in 0.2 mi WNW 3.5 mph - N/A Fog Fog
11:36 AM 35.1 °F - 34.0 °F 96% 29.38 in 0.2 mi Calm Calm - 0.00 in Fog , Rain Light Rain
11:44 AM 35.1 °F 32.2 °F 34.0 °F 96% 29.38 in 0.2 mi East 3.5 mph - 0.00 in Fog , Rain Light Rain
11:53 AM 36.0 °F 32.1 °F 35.1 °F 97% 29.38 in 0.8 mi East 4.6 mph - 0.00 in Rain Light Rain
12:23 PM 36.0 °F - 36.0 °F 100% 29.36 in 2.0 mi Calm Calm - 0.00 in Rain Light Rain
12:53 PM 35.1 °F - 35.1 °F 100% 29.35 in 2.5 mi Calm Calm - 0.01 in Rain Light Rain
1:04 PM 35.1 °F - 35.1 °F 100% 29.35 in 4.0 mi Calm Calm - 0.01 in Rain Light Rain
1:38 PM 35.1 °F 30.1 °F 34.0 °F 96% 29.32 in 5.0 mi West 5.8 mph - 0.02 in Rain Light Rain
1:53 PM 35.1 °F 31.0 °F 34.0 °F 96% 29.32 in 6.0 mi West 4.6 mph - 0.02 in Rain Light Rain
2:53 PM 36.0 °F - 34.0 °F 93% 29.30 in 6.0 mi Calm Calm - 0.00 in Rain Light Rain
3:53 PM 35.1 °F - 34.0 °F 96% 29.29 in 6.0 mi Calm Calm - 0.02 in Rain Light Rain
4:53 PM 35.1 °F - 35.1 °F 100% 29.26 in 5.0 mi Calm Calm - 0.01 in Rain Light Rain
5:53 PM 35.1 °F - 34.0 °F 96% 29.25 in 5.0 mi Calm Calm - 0.01 in Rain Light Rain
6:53 PM 35.1 °F - 35.1 °F 100% 29.23 in 7.0 mi Calm Calm - 0.00 in Rain Light Rain
7:53 PM 35.1 °F 32.2 °F 34.0 °F 96% 29.22 in 6.0 mi NE 3.5 mph - 0.03 in Rain Light Rain
8:53 PM 35.1 °F - 33.1 °F 92% 29.22 in 5.0 mi Calm Calm - 0.03 in Rain Light Rain
9:53 PM 35.1 °F - 34.0 °F 96% 29.21 in 6.0 mi Calm Calm - 0.03 in Rain Light Rain
10:46 PM 34.0 °F - 33.1 °F 96% 29.21 in 6.0 mi Calm Calm - 0.00 in Rain Light Rain
10:53 PM 34.0 °F - 33.1 °F 96% 29.21 in 7.0 mi Calm Calm - 0.00 in Rain Light Rain
11:53 PM 34.0 °F - 33.1 °F 96% 29.20 in 5.0 mi Calm Calm - 0.01 in Rain Light Rain